Location: ????????
(38.4362°N, 22.8767°E)
Time: 10:46:52
(UTC+00:00)

CZ-2D R/B - Pass Details

Date: 23 April 2024
Orbit: 791 x 842 km, 98.8° (Epoch: 18 May)

Event Time Altitude Azimuth Distance (km) Brightness Sun altitude
Rises 01:03:18 0° 5° (N) 3,371 6.1 -27.2°
Reaches altitude 10° 01:05:45 10° 359° (N) 2,441 5.1 -26.9°
Enters shadow 01:10:23 41° 302° (WNW) 1,193 2.8 -26.2°
